DW6276 Weather Reports


Display with metric or nautical units.
time (UTC)temp
F
wind
direction
speed
MPH
gust
MPH
rain 1hr
in
rain 24hr
in
rain mn
in
humidity
%
barometer
mb
20260506051016 36 338 2.0 3.0 0.00 0.00 0.00 62 1014.5
20260506045016 36 338 1.0 2.0 0.00 0.00 0.00 61 1014.2
20260506044016 36 338 2.0 2.0 0.00 0.00 0.00 60 1014.0
20260506043017 37 338 2.0 3.0 0.00 0.00 0.00 60 1014.2
20260506042016 37 338 1.0 2.0 0.00 0.00 0.00 60 1014.2
20260506041016 37 338 3.0 3.0 0.00 0.00 0.00 58 1014.1
20260506040016 38 338 3.0 4.0 0.00 0.00 0.00 57 1014.1
20260506035016 39 338 2.0 3.0 0.00 0.00 0.00 55 1014.0
20260506034016 39 338 3.0 4.0 0.00 0.00 0.00 55 1013.9
20260506033036 40 338 3.0 5.0 0.00 0.00 0.00 54 1013.8
20260506032016 41 338 4.0 7.0 0.00 0.00 0.00 53 1013.9
20260506031016 40 338 4.0 6.0 0.00 0.00 0.00 54 1013.7
20260506030016 41 0 3.0 5.0 0.00 0.00 0.00 53 1013.7
20260506025016 41 0 3.0 5.0 0.00 0.00 0.00 51 1013.5
20260506024016 42 0 4.0 6.0 0.00 0.00 0.00 50 1013.5
20260506023036 42 338 5.0 8.0 0.00 0.00 0.00 50 1013.2
20260506022016 42 0 4.0 5.0 0.00 0.00 0.00 49 1013.1
20260506021016 44 0 6.0 9.0 0.00 0.00 0.00 47 1012.9
20260506020016 44 0 6.0 9.0 0.00 0.00 0.00 47 1012.8
20260506015016 45 0 7.0 11.0 0.00 0.00 0.00 45 1012.5
20260506014016 46 338 9.0 12.0 0.00 0.00 0.00 44 1012.5
20260506013016 46 338 8.0 11.0 0.00 0.00 0.00 43 1012.3
20260506012016 47 338 8.0 12.0 0.00 0.00 0.00 42 1012.0
20260506011016 47 0 8.0 12.0 0.00 0.00 0.00 42 1011.9
20260506010016 48 338 9.0 13.0 0.00 0.00 0.00 42 1011.9
20260506005016 48 338 9.0 14.0 0.00 0.00 0.00 40 1011.7
20260506004016 48 338 10.0 13.0 0.00 0.00 0.00 40 1011.5
20260506003016 48 338 11.0 16.0 0.00 0.00 0.00 39 1011.5
20260506002016 48 315 11.0 16.0 0.00 0.00 0.00 39 1011.4
20260506001056 49 315 11.0 17.0 0.00 0.00 0.00 39 1011.2
20260506000016 49 338 10.0 18.0 0.00 0.00 0.00 39 1011.1
20260505235016 49 0 12.0 17.0 0.00 0.00 0.00 39 1011.2
20260505234016 49 315 11.0 16.0 0.00 0.00 0.00 38 1011.0
20260505233036 50 338 10.0 15.0 0.00 0.00 0.00 38 1011.0
20260505232016 50 338 13.0 17.0 0.00 0.00 0.00 38 1010.8
20260505231056 50 338 14.0 20.0 0.00 0.00 0.00 37 1010.7
20260505230016 50 315 9.0 14.0 0.00 0.00 0.00 37 1010.7
20260505225016 51 338 10.0 14.0 0.00 0.00 0.00 36 1010.7
20260505224016 50 315 11.0 15.0 0.00 0.00 0.00 35 1010.7
20260505223016 50 315 12.0 19.0 0.00 0.00 0.00 36 1010.7
20260505222016 51 315 11.0 17.0 0.00 0.00 0.00 36 1010.7
20260505221016 51 315 9.0 16.0 0.00 0.00 0.00 36 1010.8
20260505220036 51 338 12.0 18.0 0.00 0.00 0.00 36 1010.8
20260505215016 51 338 12.0 15.0 0.00 0.00 0.00 36 1010.9
20260505214016 50 338 13.0 20.0 0.00 0.00 0.00 35 1010.9
20260505213015 51 315 11.0 18.0 0.00 0.00 0.00 35 1010.9
20260505212036 51 315 11.0 16.0 0.00 0.00 0.00 36 1011.1
20260505211016 51 315 11.0 17.0 0.00 0.00 0.00 35 1011.0
20260505210015 51 315 11.0 16.0 0.00 0.00 0.00 36 1011.1
20260505205015 50 315 10.0 16.0 0.00 0.00 0.00 36 1011.1
20260505204015 50 293 9.0 14.0 0.00 0.00 0.00 38 1011.2
20260505203015 51 315 10.0 16.0 0.00 0.00 0.00 36 1011.2
20260505202016 50 315 11.0 17.0 0.00 0.00 0.00 36 1011.4
20260505201015 49 315 8.0 13.0 0.00 0.00 0.00 39 1011.4
20260505200015 49 315 7.0 13.0 0.00 0.00 0.00 39 1011.4
20260505195016 49 315 7.0 11.0 0.00 0.00 0.00 40 1011.6
20260505194016 49 315 11.0 20.0 0.00 0.00 0.00 39 1011.5
20260505193015 50 293 8.0 13.0 0.00 0.00 0.00 39 1011.5
20260505192015 50 315 9.0 14.0 0.00 0.00 0.00 40 1011.6
20260505191015 49 315 9.0 14.0 0.00 0.00 0.00 39 1011.6
20260505190015 48 315 9.0 13.0 0.00 0.00 0.00 42 1011.7
20260505185015 48 315 8.0 16.0 0.00 0.00 0.00 42 1011.7
20260505184015 48 315 8.0 12.0 0.00 0.00 0.00 41 1011.6
20260505183015 49 315 8.0 17.0 0.00 0.00 0.00 41 1011.7
20260505182015 48 315 7.0 13.0 0.00 0.00 0.00 44 1011.7
20260505181015 48 315 8.0 13.0 0.00 0.00 0.00 42 1011.7
20260505180035 48 293 7.0 12.0 0.00 0.00 0.00 42 1011.7
20260505175015 48 293 9.0 12.0 0.00 0.00 0.00 42 1011.7
20260505174015 48 315 9.0 13.0 0.00 0.00 0.00 42 1011.6
20260505173015 48 338 6.0 12.0 0.00 0.00 0.00 43 1011.6
20260505172015 47 315 7.0 11.0 0.00 0.00 0.00 45 1011.7
20260505171055 46 293 7.0 11.0 0.00 0.00 0.00 45 1011.8
20260505170015 46 293 7.0 10.0 0.00 0.00 0.00 46 1011.6
20260505165015 46 315 4.0 8.0 0.00 0.00 0.00 49 1011.7
20260505164015 46 315 8.0 12.0 0.00 0.00 0.00 49 1011.8
20260505163037 46 315 7.0 10.0 0.00 0.00 0.00 48 1011.7
20260505162017 45 315 7.0 12.0 0.00 0.00 0.00 48 1011.6
20260505161037 47 0 5.0 10.0 0.00 0.00 0.00 46 1011.7
20260505153017 45 338 9.0 16.0 0.00 0.00 0.00 47 1011.6
20260505152017 45 315 6.0 9.0 0.00 0.00 0.00 47 1011.5
20260505151017 45 338 8.0 14.0 0.00 0.00 0.00 44 1011.5
20260505125017 39 0 2.0 4.0 0.00 0.00 0.00 69 1010.6
20260505124017 38 293 1.0 3.0 0.00 0.00 0.00 71 1010.5
20260505123017 37 293 1.0 2.0 0.00 0.00 0.00 74 1010.4
20260505122037 36 293 1.0 2.0 0.00 0.00 0.00 76 1010.2
20260505121017 35 0.0 2.0 0.00 0.00 0.00 80 1010.0
20260505120036 33 0.0 0.0 0.00 0.00 0.00 81 1009.8
20260505115037 31 0.0 2.0 0.00 0.00 0.00 81 1009.4
20260505114017 30 0.0 2.0 0.00 0.00 0.00 82 1009.2
20260505113016 29 0.0 2.0 0.00 0.00 0.00 82 1008.9
20260505112017 28 0.0 2.0 0.00 0.00 0.00 82 1008.7
20260505111017 28 0.0 1.0 0.00 0.00 0.00 80 1008.6
20260505102036 30 0.0 0.0 0.00 0.00 0.00 77 1008.4
20260505101017 30 0.0 0.0 0.00 0.00 0.00 76 1008.4
20260505100016 31 0.0 2.0 0.00 0.00 0.00 76 1008.5
20260505095017 32 0.0 1.0 0.00 0.00 0.00 76 1008.5
20260505094016 32 0.0 1.0 0.00 0.00 0.00 76 1008.5
20260505093016 32 338 1.0 2.0 0.00 0.00 0.00 76 1008.4
20260505092016 33 0.0 2.0 0.00 0.00 0.00 73 1008.3
20260505091056 34 338 1.0 2.0 0.00 0.00 0.00 72 1008.3
20260505090016 35 338 1.0 2.0 0.00 0.00 0.00 71 1008.2
20260505085016 36 315 2.0 5.0 0.00 0.00 0.00 69 1008.1
20260505084016 35 293 2.0 3.0 0.00 0.00 0.00 69 1008.1
20260505083016 35 315 2.0 3.0 0.00 0.00 0.00 70 1007.9
20260505082016 35 0.0 1.0 0.00 0.00 0.00 69 1007.7
20260505081016 36 0.0 1.0 0.00 0.00 0.00 68 1007.6
20260505080016 36 315 1.0 1.0 0.00 0.00 0.00 68 1007.7
20260505075016 37 315 3.0 5.0 0.00 0.00 0.00 68 1007.6
20260505074016 36 315 2.0 3.0 0.00 0.00 0.00 68 1007.4
20260505073016 36 293 1.0 3.0 0.00 0.00 0.00 66 1007.4
20260505072016 37 293 2.0 4.0 0.00 0.00 0.00 65 1007.5
20260505071016 37 293 1.0 2.0 0.00 0.00 0.00 64 1007.6
20260505070016 38 0.0 2.0 0.00 0.00 0.00 63 1007.5
20260505065016 38 270 1.0 2.0 0.00 0.00 0.00 63 1007.6
20260505064016 38 293 1.0 3.0 0.00 0.00 0.00 63 1007.7
20260505063016 38 0.0 2.0 0.00 0.00 0.00 63 1007.6
20260505062016 38 293 2.0 3.0 0.00 0.00 0.00 65 1007.6
20260505061036 38 315 2.0 4.0 0.00 0.00 0.00 64 1007.7
20260505060116 38 315 2.0 3.0 0.00 0.00 0.00 63 1007.7
20260505055016 38 293 2.0 2.0 0.00 0.00 0.00 62 1007.7
20260505054016 39 293 1.0 1.0 0.00 0.00 0.00 61 1007.7
20260505053016 39 293 1.0 2.0 0.00 0.00 0.00 62 1007.6